Погода Пушкинские Горы

Погода Пушкинские Горы : погода сейчас, прогноз погоды и архив. Всё, что Вы хотите узнать о погоде Пушкинские Горы!

Хотите узнать прогноз погоды Пушкинские Горы? Тогда Вам сюда: Погода Пушкинские Горы

Поиск расширенной информации на нашем сайте:

Другие новости

Новости СМИ2

Главная страница сайта

Новости сайта

03.07.2017

Напоминаем, что на нашем специализированном сайте Метеоцентр.Азия вы можете получить высокодетализированные автоматические прогнозы погоды по пунктам России, СНГ и мира в авиационном формате (включающие направление и скорость ветра, видимость, явления погоды, количество и форму облачности, нижнюю и верхнюю границу облачности).


Погода Пушкинские Горы - сегодня

Время (UTC), дата Ветер
(°,м/с) 
Видим.   Явления Облачность Т
(°С)
Тd
(°С)
f(%) Тe
(°С)
Pmin
(гПа)
dP
(гПа)
Po
(мм)
O2
(г/м3)
Тmin Tmax R s Состояние
почвы
21 16.04.18 110 (В) 20000 м    10/0 средняя 
[Ac As]
+15.8 +5.6 51 +17  1014.3  -0.3  752  285           
00 17.04.18 120 (ЮВ) 20000 м    10/0 средняя 
[Ac As]
+15.4 +6.2 54 +16  1013.4  -0.9  751  285           
03 17.04.18 220 (ЮЗ) 10 км  слаб. дождь  10/10 600 м 
[Sc]
+11.4 +6.8 73 +13  1013.1  -0.4  751  289  +11.4    0.0     
06 17.04.18 110 (В) 10 км  {дождь}  10/10 600 м 
[Sc]
+13.9 +9 72 +14  1012.2  -0.8  750  286  +10.4    0.0    влажная 
09 17.04.18 130 (ЮВ) 10 км  {ливн. осадки}  10/10 300 м кучево-дожд. 
[Cb cap]
+14.6 +10 74 +16  1011.8  -0.3  750  285           
15 17.04.18 270 (З) н/о    н/о 
+12.3 +11.4 94 +15  1010.8  749  287           
18 17.04.18 290 (З) 4{11}  4000 м  слаб. ливневой дождь  10/10 300 м кучево-дожд. 
[Cb cap]
+8.4 +7.3 93 +7  1013.7  2.8  751  292    +18.2     
21 17.04.18 280 (З) 10 км  {ливн. осадки}  10/10 300 м кучево-дожд. 
[Cb cap]
+6.7 +5.3 91 +6  1015.2  1.4  752  295           
03 18.04.18 270 (З) 10 км    10/10 600 м 
[Sc]
+4.9 +3 87 +3  1016  -0.2  753  297  +4.9    0.3     
09 18.04.18 300 (СЗ) 20000 м    10/10 300 м кучево-дожд. 
[Cb cap]
+6.9 +4.3 83 +6  1016.4  0.5  753  295           
18 18.04.18 340 (С) 3{12}  10 км  слаб. ливневой дождь  10/10 300 м кучево-дожд. 
[Cb cap]
+7.2 +5.6 90 +6  1018.7  0.6  755  295    +7.8  0.4     
21 18.04.18 330 (СЗ) 20000 м  {ливн. осадки}  9/9 600 м 
[Sc]
+6.8 +5.9 94 +7  1018.5  -0.3  755  296           
03 19.04.18 320 (СЗ) 20000 м    10/10 600 м кучево-дожд. 
[Cb cap]
+6.4 +5 91 +5  1017.3  -0.7  754  296  +6.3       
09 19.04.18 330 (СЗ) 10 км    10/10 300 м кучево-дожд. 
[Cb cap]
+7.3 +5.6 89 +7  1017.8  1.1  754  295           
15 19.04.18 330 (СЗ) 10 км    4/4 1000 м 
[Cu med, cong]
+11.9 +5.1 63 +11  1020  0.7  756  291      0.0     
21 19.04.18 340 (С) 10 км    ясно 
+5.9 +2.8 80 +7  1022.4  0.8  757  298           
00 20.04.18 320 (СЗ) 10 км    ясно 
+3.6 +2.5 92 +4  1022.9  0.3  758  301           
03 20.04.18 тихо ()   10 км    3/0 верхняя 
[Ci fib]
+1.6 +1.3 98 +2  1022.7  -0.2  758  303  +1.5         
09 20.04.18 290 (З) 20000 м    6/0 верхняя 
[Ci fib]
+14 +3.3 48 +14  1021.4  -1.1  757  290           
21 20.04.18 250 (З) 20000 м    ясно 
+13.3 +8.8 74 +13  1010.2  -2.6  749  286           
00 21.04.18 230 (ЮЗ) 20000 м    4/0 средняя 
[Ac trans]
+11.9 +9 82 +12  1007.1  -3.1  746  287           
03 21.04.18 200 (Ю) 20000 м    3/0 средняя 
[Ac trans]
+9.7 +5.9 77 +9  1001.8  -5.3  742  288  +9.9         
06 21.04.18 250 (З) 6-12{12}  20000 м    1/0 средняя 
[Ac trans]
+14.4 +8.2 66 +14  997  -4.5  739  281  +9.6        влажная 
21 21.04.18 300 (СЗ) 4{12}  20000 м    9/0 средняя 
[Ac und]
+8.7 +0.1 55 +8  1004.9  1.1  745  291           
09 22.04.18 320 (СЗ) 4{11}  20000 м    10/10 600 м кучево-дожд. 
[Cb cap]
+8.3 +1.5 62 +7  1007.7  1.3  747  292           
Время (UTC), дата Ветер
(°,м/с) 
Видим.   Явления Облачность Т
(°С)
Тd
(°С)
f(%) Тe
(°С)
Pmin
(гПа)
dP
(гПа)
Po
(мм)
O2
(г/м3)
Тmin Tmax R s Состояние
почвы

Для получения пояснительной информации подведите курсор к названию столбца.

ПОГОДА Пушкинские Горы - архив

Всё, что Вы хотите узнать о погоде Пушкинские Горы - удобно и подробно!

Выберите нужную дату (начиная с 1 января 2015* года) и нажмите кнопку "Найти".
Будут отображены архивные сводки погоды по пункту Пушкинские Горы, начиная с указанной даты.


Отображать данные в формате CSV (для использования в таблицах Excel)


Внимание! Наш архив погоды предназначен исключительно для личного некоммерческого использования в познавательных целях. Если Вам необходимы официальные справки о состоянии погоды (для производственных, юридических, коммерческих и т.п. целей), обращайтесь в органы Росгидромета.

*Примечание: данная дата относится к архиву по метеостанциям СССР (Россия, СНГ, Балтия).
Архив по метеостанциям Зарубежной Европы и Азии (кроме Китая) хранится 10 дней, по другим регионам земного шара (Китай, Африка, Америка, Австралия, Океания) - 1 день.

Пушкинские Горы - район местоположения метеостанции


Название, широта, долгота, высота метеостанции:
Пушкинские Горы 57°ш. 28.9°д. 108 м над ур. моря [Российская Федерация]

Дополнительная информация

В oтличие oт бoльшинства пoгoдных сайтoв мы публикуем пoдрoбную метеoинфoрмацию в детальнoм прoфессиoнальнoм фoрмате.

Характеристики температуры и влажнoсти вoздуха измеряются на высoте 2 м в тени вдали oт зданий и деревьев.
Скoрoсть ветра измеряется на высoте 10 м (на урoвне рoста челoвека скoрoсть ветра ниже в 1.5-2 раза). Если метеoстанция нахoдится в гoрoде или в лесу, тo скoрoсть ветра занижена на 2-4 м/с пo сравнению с oткрытым местoм. Скoрoсть ветра над акватoриями крупных рек и oзёр, а также на вершинах хoлмoв на 2-5 м/с выше, чем в oбычных услoвиях.
Атмoсфернoе давление в разных тoчках местнoсти мoжет значительнo oтличаться oт давления на метеoстанции, в зависимoсти oт услoвий рельефа (при пoдъёме на 10 м давление пoнижается примернo на 1 мм рт.ст.).